Location: Columbia
(38.9520°N, 92.3340°W)
Time: 22:10:46
(UTC-05:00)

Iridium 15 - Visible Passes

Search period start: 26 April 2017 00:00
Search period end: 06 May 2017 00:00
Orbit: 761 x 765 km, 86.4° (Epoch: 25 April)

Date Brightness Start Highest point End Pass type
(mag) Time Alt. Az. Time Alt. Az. Time Alt. Az.
26 Apr 8.3 00:38:51 10° NNE 00:40:31 18° NE 00:40:31 18° NE visible
26 Apr 8.2 02:19:09 10° NNW 02:20:41 18° NW 02:20:41 18° NW visible
27 Apr 8.6 00:02:29 10° NE 00:02:48 11° NE 00:02:48 11° NE visible
27 Apr 7.9 01:40:50 10° N 01:42:58 25° NNW 01:42:58 25° NNW visible
28 Apr 7.9 01:02:58 10° N 01:05:16 26° NNE 01:05:16 26° NNE visible
29 Apr 8.1 00:25:35 10° NNE 00:27:33 20° NE 00:27:33 20° NE visible
29 Apr 8.2 02:06:05 10° NNW 02:07:43 18° NW 02:07:43 18° NW visible
29 Apr 8.5 23:49:02 10° NE 23:49:51 12° NE 23:49:51 12° NE visible
30 Apr 7.8 01:27:41 10° N 01:30:01 27° NNW 01:30:01 27° NNW visible
01 May 7.7 00:49:47 10° N 00:52:19 29° N 00:52:19 29° N visible
02 May 7.9 00:12:20 10° NNE 00:14:38 23° NE 00:14:38 23° NE visible
02 May 8.1 01:53:01 10° NNW 01:54:48 18° NW 01:54:48 18° NW visible
02 May 8.3 23:35:38 10° NE 23:36:57 14° NE 23:36:57 14° NE visible
03 May 7.7 01:14:33 10° NNW 01:17:07 28° NNW 01:17:07 28° NNW visible
04 May 7.5 00:36:36 10° N 00:39:26 33° N 00:39:26 33° N visible
04 May 7.7 23:59:05 10° NNE 00:01:45 26° NE 00:01:45 26° NE visible
05 May 8.1 01:39:56 10° NNW 01:41:55 18° NW 01:41:55 18° NW visible
05 May 8.1 23:22:16 10° NE 23:24:05 16° NE 23:24:05 16° NE visible
